Hourly Data Report for October 17, 2016

All times are specified in Local Standard Time (LST). Add 1 hour to adjust for Daylight Saving Time where and when it is observed.

EUREKA CLIMATE
NUNAVUT

79°59'21.000" N
85°56'02.000" W
10.00 m
2401199
71613
NEK

Download Data

Hourly Data (October 2016)
Hourly Data Report for October 17, 2016
Temp Definition
°C
Dew Point Temp Definition
°C
Rel Hum Definition
%
Wind Dir Definition
10's deg

Wind Spd Definition
km/h
Visibility Definition
km
Stn Press Definition
kPa
Hmdx Definition


Wind Chill Definition


Weather Definition


TIME
00:00 -26.9 -29.4 80 16 1   101.32   -28 LegendNANA
01:00 -29.1 -31.7 78 13 2   101.34   -31 LegendNANA
02:00 -27.0 -29.4 80 11 6   101.36   -33 LegendNANA
03:00 -26.9 -29.3 80 7 4   101.36   -31 LegendNANA
04:00 -28.7 -31.4 78 12 3   101.37   -32 LegendNANA
05:00 -29.0 -31.6 78 13 3   101.38   -32 LegendNANA
06:00 -28.6 -31.2 78 11 4   101.38   -33 LegendNANA
07:00 -28.8 -31.4 78 11 3   101.38   -32 LegendNANA
08:00 -29.7 -32.5 77 17 2   101.39   -32 LegendNANA
09:00 -29.6 -32.4 77 17 2   101.40   -32 LegendNANA
10:00 -30.3 -33.1 77 11 3   101.40   -34 LegendNANA
11:00 -29.8 -32.6 77 15 1   101.40   -31 LegendNANA
12:00 -30.3 -33.1 77 13 3   101.43   -34 LegendNANA
13:00 -30.2 -33.0 77 10 3   101.44   -34 LegendNANA
14:00 -30.5 -33.4 76 14 2   101.48   -33 LegendNANA
15:00 -30.3 -33.1 77 11 6   101.48   -37 LegendNANA
16:00 -30.9 -33.8 76 9 2   101.50   -33 LegendNANA
17:00 -30.5 -33.3 76 7 2   101.51   -33 LegendNANA
18:00 -31.2 -34.1 75 12 5   101.52   -37 LegendNANA
19:00 -31.3 -34.2 75 8 3   101.51   -35 LegendNANA
20:00 -30.2 -33.0 77 8 2   101.50   -32 LegendNANA
21:00 -30.5 -33.3 76 12 4   101.51   -35 LegendNANA
22:00 -30.2 -33.0 77 7 4   101.52   -35 LegendNANA
23:00 -30.0 -32.8 77 8 6   101.51   -37 LegendNANA

Notes on Data Quality.

Legend

  • E = Estimated
  • M = Missing
  • NA = Not Available
  • ‡ = Partner data that is not subject to review by the National Climate Archives
Date modified: